Location: Mentone
(34.5413°N, 85.5351°W)
Time: 04:43:50
(UTC-05:00)

Vanguard 2 Rocket - Visible Passes

Search period start: 20 October 2014 00:00
Search period end: 30 October 2014 00:00
Orbit: 554 x 3335 km, 32.9° (Epoch: 18 October)

Date Brightness Start Highest point End Pass type
(mag) Time Alt. Az. Time Alt. Az. Time Alt. Az.
20 Oct 9.7 02:52:17 12° E 02:52:17 12° E 02:52:48 10° E visible
20 Oct 7.3 04:58:12 46° WSW 05:00:15 73° SSE 05:10:22 10° E visible
21 Oct 7.7 04:03:15 49° ESE 04:03:15 49° ESE 04:09:53 10° E visible
21 Oct 7.9 06:09:10 11° W 06:15:39 81° S 06:28:05 10° E visible
22 Oct 9.4 03:08:18 16° E 03:08:18 16° E 03:09:52 10° E visible
22 Oct 7.3 05:14:13 38° WSW 05:16:54 80° S 05:27:07 10° E visible
23 Oct 7.2 04:19:15 64° ESE 04:19:15 64° ESE 04:26:37 10° E visible
23 Oct 8.0 06:25:37 10° W 06:32:20 74° S 06:44:42 10° ESE visible
24 Oct 9.1 03:24:17 21° E 03:24:17 21° E 03:26:40 10° E visible
24 Oct 7.4 05:30:11 29° W 05:33:35 78° S 05:43:49 10° E visible
25 Oct 6.8 04:35:14 78° SSE 04:35:14 78° SSE 04:43:21 10° E visible
26 Oct 8.7 03:40:16 26° E 03:40:16 26° E 03:43:24 10° E visible
26 Oct 7.5 05:46:11 22° W 05:50:15 68° S 06:00:23 10° ESE visible
27 Oct 6.7 04:51:13 68° SW 04:51:46 74° S 05:00:02 10° ESE visible
28 Oct 8.3 03:56:16 32° E 03:56:16 32° E 04:00:06 10° E visible
28 Oct 7.8 06:02:11 16° W 06:06:55 53° SSW 06:16:39 10° ESE visible
29 Oct 6.9 05:07:15 50° WSW 05:08:26 61° S 05:16:33 10° ESE visible
